Back to catalog

FENGYUN 1C DEB

AliveSSO
NORAD 30577·DEBRIS·🇨🇳 China

Launched May 10, 1999 from Taiyuan Satellite Launch Center

Loading…

Next Passes (next 24 hours)

TLE

FreshSource: Space-Track

Epoch: Sep 14, 2026, 08:15 UTC

1 30577U 99025ALT 26257.34442670  .00000473  00000-0  28324-3 0  9995
2 30577  98.7436 289.5014 0028673 218.5292 271.4336 14.11553161  6612

Track FENGYUN 1C DEB in real time with AllMySat

Download on the App Store